Weather History for Columbia Owens, SC

Change the Weather History Date:

Sunday, February 3, 2013

  Actual Average Record
Temperature  
Mean Temperature 52 °F 48 °F  
Max Temperature 61 °F 58 °F 71 °F (2003)
Min Temperature 42 °F 37 °F 23 °F (2000)
Degree Days  
Heating Degree Days 13 18  
Month to date heating degree days 62 54  
Since 1 July heating degree days 1252 1546  
Cooling Degree Days 0 0  
Month to date cooling degree days 0 0  
Year to date cooling degree days 24 1  
Growing Degree Days 1 (Base 50)    
Moisture  
Dew Point 29 °F    
Average Humidity 47    
Maximum Humidity 70    
Minimum Humidity 23    
Precipitation  
Precipitation 0.00 in 0.10 in 0.76 in (2005)
Month to date precipitation 0.00 0.31  
Year to date precipitation 1.42 3.94  
Sea Level Pressure  
Sea Level Pressure 30.01 in    
Wind  
Wind Speed 9 mph (West)    
Max Wind Speed 23 mph    
Max Gust Speed 33 mph    
Visibility 10 miles    
Events      
T = Trace of Precipitation, MM = Missing Value Source: NWS Daily Summary

Daily Weather History Graph

Daily Weather History Graph

Search for Another Location

Airport:

Trip Planner

Search our weather history database for the weather conditions in past years. The results will help you decide how hot, cold, wet, or windy it might be!

Date:

Astronomy

Feb. 03, 2013 Rise Set
Actual Time 7:19 AM EST 5:56 PM EST
Civil Twilight 6:53 AM EST 6:22 PM EST
Nautical Twilight 6:23 AM EST 6:52 PM EST
Astronomical Twilight 5:53 AM EST 7:22 PM EST
Moon 12:44 AM EST (2/3) 11:34 AM EST (2/3)
Length of Visible Light 11h 29m
Length of Day
10h 37m
Waning Gibbous, 49% of the Moon is Illuminated
Feb 3
Waning Gibbous
Feb 10
New
Feb 17
First Quarter
Feb 25
Full
Mar 4
Last Quarter

Hourly Weather History & Observations

Time (EST) Temp. Windchill Dew Point Humidity Pressure Visibility Wind Dir Wind Speed Gust Speed Precip Events Conditions
12:53 AM 48.0 °F - 34.0 °F 58% 30.08 in 10.0 mi WSW 5.8 mph - N/A   Overcast
1:53 AM 46.0 °F 44.8 °F 34.0 °F 63% 30.04 in 10.0 mi WSW 3.5 mph - N/A   Partly Cloudy
2:53 AM 46.9 °F - 36.0 °F 66% 30.04 in 10.0 mi West 8.1 mph - N/A   Overcast
3:53 AM 46.0 °F 40.6 °F 36.0 °F 68% 30.03 in 10.0 mi West 11.5 mph - N/A   Partly Cloudy
4:53 AM 44.1 °F 38.1 °F 35.1 °F 71% 30.01 in 10.0 mi West 11.5 mph - N/A   Clear
5:53 AM 43.0 °F 36.8 °F 33.1 °F 68% 30.02 in 10.0 mi West 11.5 mph - N/A   Clear
6:53 AM 42.1 °F 37.1 °F 30.0 °F 62% 30.05 in 10.0 mi West 8.1 mph - N/A   Clear
7:53 AM 42.1 °F 37.1 °F 30.0 °F 62% 30.06 in 10.0 mi West 8.1 mph - N/A   Clear
8:53 AM 44.1 °F 38.6 °F 30.9 °F 60% 30.07 in 10.0 mi West 10.4 mph - N/A   Clear
9:53 AM 46.9 °F - 30.0 °F 52% 30.07 in 10.0 mi West 12.7 mph - N/A   Clear
10:53 AM 51.1 °F - 28.9 °F 43% 30.04 in 10.0 mi West 12.7 mph - N/A   Clear
11:53 AM 54.0 °F - 30.0 °F 40% 30.01 in 10.0 mi West 15.0 mph 27.6 mph N/A   Clear
12:53 PM 57.0 °F - 30.9 °F 37% 29.96 in 10.0 mi WNW 16.1 mph 26.5 mph N/A   Scattered Clouds
1:53 PM 57.9 °F - 30.0 °F 35% 29.93 in 10.0 mi WNW 15.0 mph 20.7 mph N/A   Scattered Clouds
2:53 PM 60.1 °F - 27.0 °F 28% 29.91 in 10.0 mi NW 12.7 mph 24.2 mph N/A   Partly Cloudy
3:53 PM 60.1 °F - 25.0 °F 26% 29.91 in 10.0 mi WNW 12.7 mph 24.2 mph N/A   Clear
4:53 PM 59.0 °F - 21.9 °F 24% 29.93 in 10.0 mi West 12.7 mph 25.3 mph N/A   Clear
5:53 PM 57.0 °F - 24.1 °F 28% 29.95 in 10.0 mi WNW 6.9 mph - N/A   Clear
6:53 PM 55.0 °F - 21.0 °F 27% 29.98 in 10.0 mi West 13.8 mph - N/A   Clear
7:53 PM 53.1 °F - 24.1 °F 32% 30.00 in 10.0 mi West 9.2 mph - N/A   Clear
8:53 PM 51.1 °F - 26.1 °F 38% 30.03 in 10.0 mi WNW 4.6 mph - N/A   Clear
9:53 PM 48.9 °F - 28.0 °F 44% 30.03 in 10.0 mi Calm Calm - N/A   Clear
10:53 PM 48.0 °F - 28.0 °F 46% 30.04 in 10.0 mi WNW 3.5 mph - N/A   Clear
11:53 PM 43.0 °F - 28.0 °F 56% 30.05 in 10.0 mi Calm Calm - N/A   Clear